Location: Iowa City
(41.6610°N, 91.5300°W)
Time: 18:40:47
(UTC-05:00)

ISS - Visible Passes

Search period start: 31 July 2014 00:00
Search period end: 10 August 2014 00:00
Orbit: 411 x 419 km, 51.6° (Epoch: 31 July)

Date Brightness Start Highest point End Pass type
(mag) Time Alt. Az. Time Alt. Az. Time Alt. Az.
31 Jul 0.1 01:09:55 11° NNE 01:09:55 11° NNE 01:10:04 10° NE visible
31 Jul -0.1 02:42:58 10° NW 02:45:00 15° N 02:47:02 10° NE visible
31 Jul -1.0 04:19:36 10° NW 04:22:33 27° NNE 04:25:29 10° E visible
01 Aug -0.2 01:55:45 15° N 01:55:54 15° N 01:57:56 10° NE visible
01 Aug -0.6 03:30:53 10° NW 03:33:32 21° NNE 03:36:11 10° ENE visible
01 Aug -3.3 05:07:15 10° NW 05:10:37 89° SW 05:13:58 10° SE visible
01 Aug -0.9 21:49:59 10° SSW 21:50:14 11° S 21:50:14 11° S visible
02 Aug -0.3 02:42:06 10° NNW 02:44:28 18° NNE 02:46:50 10° ENE visible
02 Aug -2.5 04:18:26 10° NW 04:21:45 55° NNE 04:25:03 10° ESE visible
02 Aug -1.6 21:02:09 10° SSE 21:04:08 15° SE 21:06:07 10° E visible
02 Aug -2.9 22:37:11 10° WSW 22:40:29 65° NNW 22:41:08 50° NNE visible
03 Aug -0.1 01:56:18 14° NNE 01:56:18 14° NNE 01:57:30 10° NE visible
03 Aug -1.6 03:29:41 10° NW 03:32:49 35° NNE 03:35:57 10° E visible
03 Aug -2.5 05:06:28 10° WNW 05:09:30 32° SW 05:12:31 10° SSE visible
03 Aug -3.4 21:48:19 10° SW 21:51:38 73° SE 21:54:58 10° ENE visible
03 Aug -0.8 23:25:54 10° WNW 23:28:38 23° NNW 23:29:58 18° NNE visible
04 Aug -0.4 02:46:03 14° ENE 02:46:03 14° ENE 02:46:42 10° E visible
04 Aug -3.3 04:19:14 28° WNW 04:20:44 57° SW 04:24:01 10° SE visible
04 Aug -2.8 20:59:42 10° SSW 21:02:50 40° SE 21:05:59 10° ENE visible
04 Aug -1.3 22:36:36 10° W 22:39:36 30° NNW 22:42:37 10° NE visible
05 Aug -0.1 00:15:04 10° NW 00:16:41 15° NNW 00:16:41 15° NNW visible
05 Aug -2.1 21:47:25 10° WSW 21:50:37 44° NNW 21:53:51 10° NE visible
05 Aug -0.3 23:25:45 10° NW 23:27:59 16° N 23:29:46 12° NNE visible
06 Aug -3.0 20:58:23 10° WSW 21:01:42 73° NNW 21:05:02 10° NE visible
06 Aug -0.5 22:36:22 10° WNW 22:38:52 19° NNW 22:41:22 10° NNE visible
07 Aug 0.0 00:14:26 10° NNW 00:15:29 14° NNW 00:15:29 14° NNW visible
07 Aug -0.9 21:46:59 10° WNW 21:49:46 24° NNW 21:52:34 10° NE visible
07 Aug -0.3 23:25:22 10° NW 23:27:22 15° N 23:28:15 14° NNE visible
08 Aug -1.4 20:57:41 10° W 21:00:43 32° NNW 21:03:47 10° NE visible
08 Aug -0.3 22:36:08 10° NW 22:38:12 15° N 22:40:16 10° NNE visible
09 Aug 0.1 00:13:20 10° NNW 00:13:48 12° NNW 00:13:48 12° NNW visible
09 Aug -0.4 21:46:46 10° NW 21:49:02 17° N 21:51:19 10° NNE visible
09 Aug -0.4 23:24:29 10° NNW 23:26:30 16° N 23:26:30 16° N visible
